Location: �bnet
(46.9957°N, 8.4908°E)
Time: 08:08:55
(UTC+00:00)

Cosmos 1271 Rocket - Pass Details

Date: 11 May 2021
Orbit: 497 x 545 km, 81.2° (Epoch: 13 June)

Event Time Altitude Azimuth Distance (km) Brightness Sun altitude
Exits shadow 20:19:41 21° 123° (ESE) 1,269 4.1 -13.0°
Maximum altitude 20:21:05 25° 91° (E) 1,115 4.0 -13.2°
Drops below altitude 10° 20:24:25 10° 35° (NE) 1,824 5.6 -13.6°
Sets 20:26:51 0° 23° (NNE) 2,721 6.7 -13.9°
